Time+07,TemperatureF,Dew PointF,Humidity,Sea Level PressureIn,VisibilityMPH,Wind Direction,Wind SpeedMPH,Gust SpeedMPH,PrecipitationIn,Events,Conditions,WindDirDegrees,DateUTC
12:00 AM,77.0,73.4,89,29.89,5.0,Calm,Calm,-,N/A,,Unknown,0,2014-02-17 17:00:00
12:30 AM,113.0,73.4,29,29.86,5.0,Calm,Calm,-,N/A,,Unknown,0,2014-02-17 17:30:00
1:00 AM,113.0,73.4,29,29.86,5.0,Calm,Calm,-,N/A,,Unknown,0,2014-02-17 18:00:00
7:00 AM,,,,,,Calm,Calm,,,,,,2014-02-18 00:00:00
7:00 AM,-9999,-9999,N/A,29.92,1.2,SE,1.2,-,N/A,,Mist,130,2014-02-18 00:00:00
7:30 AM,73.4,73.4,100,29.92,1.2,ESE,1.2,-,N/A,,Mist,120,2014-02-18 00:30:00
8:00 AM,75.2,73.4,94,29.92,1.2,Variable,2.3,-,N/A,,Mist,0,2014-02-18 01:00:00
8:30 AM,77.0,75.2,94,29.92,3.1,ESE,3.5,-,N/A,,Mist,110,2014-02-18 01:30:00
9:00 AM,80.6,75.2,84,29.95,-9999.0,North,-9999.0,-,N/A,,Unknown,0,2014-02-18 02:00:00
9:30 AM,80.6,75.2,84,29.95,-9999.0,North,-9999.0,-,N/A,,Unknown,0,2014-02-18 02:30:00
10:00 AM,82.4,75.2,79,29.95,4.3,Variable,2.3,-,N/A,,Partly Cloudy,0,2014-02-18 03:00:00
10:30 AM,82.4,73.4,74,29.95,5.0,Variable,2.3,-,N/A,,Scattered Clouds,0,2014-02-18 03:30:00
11:00 AM,84.2,73.4,70,29.95,5.6,WSW,4.6,-,N/A,,Scattered Clouds,250,2014-02-18 04:00:00
12:00 PM,84.2,73.4,70,29.89,5.6,Variable,3.5,-,N/A,,Scattered Clouds,0,2014-02-18 05:00:00
12:30 PM,86.0,71.6,62,29.86,6.2,Variable,2.3,-,N/A,,Scattered Clouds,0,2014-02-18 05:30:00
1:00 PM,86.0,71.6,62,29.86,6.2,Variable,4.6,-,N/A,,Scattered Clouds,0,2014-02-18 06:00:00
1:30 PM,89.6,69.8,52,29.83,6.2,Variable,5.8,-,N/A,,Scattered Clouds,0,2014-02-18 06:30:00
2:00 PM,89.6,69.8,52,29.83,6.2,WNW,4.6,-,N/A,,Scattered Clouds,290,2014-02-18 07:00:00
2:30 PM,89.6,69.8,52,29.80,6.2,WSW,5.8,-,N/A,,Scattered Clouds,240,2014-02-18 07:30:00
3:00 PM,89.6,69.8,52,29.80,6.2,West,4.6,-,N/A,,Scattered Clouds,270,2014-02-18 08:00:00
3:30 PM,89.6,69.8,52,29.77,6.2,SW,4.6,-,N/A,,Scattered Clouds,230,2014-02-18 08:30:00
4:00 PM,89.6,68.0,49,29.77,6.2,West,5.8,-,N/A,,Partly Cloudy,260,2014-02-18 09:00:00
4:30 PM,89.6,69.8,52,29.77,5.6,SSW,4.6,-,N/A,,Unknown,210,2014-02-18 09:30:00
5:00 PM,89.6,69.8,52,29.77,5.6,South,4.6,-,N/A,,Unknown,170,2014-02-18 10:00:00
5:30 PM,87.8,68.0,52,29.77,5.6,South,3.5,-,N/A,,Unknown,170,2014-02-18 10:30:00
6:00 PM,86.0,66.2,51,29.77,5.6,ESE,3.5,-,N/A,,Unknown,120,2014-02-18 11:00:00
6:30 PM,84.2,66.2,55,29.77,5.6,SE,4.6,-,N/A,,Unknown,140,2014-02-18 11:30:00
7:00 PM,84.2,66.2,55,29.80,5.6,ESE,4.6,-,N/A,,Unknown,110,2014-02-18 12:00:00
7:30 PM,82.4,69.8,66,29.80,5.0,ESE,2.3,-,N/A,,Unknown,120,2014-02-18 12:30:00
8:00 PM,78.8,69.8,74,29.80,5.0,ESE,2.3,-,N/A,,Unknown,110,2014-02-18 13:00:00
8:30 PM,78.8,73.4,83,29.83,5.0,NE,1.2,-,N/A,,Unknown,50,2014-02-18 13:30:00
9:00 PM,78.8,75.2,89,29.83,5.0,ESE,3.5,-,N/A,,Unknown,120,2014-02-18 14:00:00
9:30 PM,78.8,73.4,83,29.83,5.0,ESE,3.5,-,N/A,,Unknown,110,2014-02-18 14:30:00
10:00 PM,78.8,73.4,83,29.83,5.0,SW,5.8,-,N/A,,Unknown,220,2014-02-18 15:00:00
10:30 PM,78.8,75.2,89,29.83,5.0,SW,5.8,-,N/A,,Unknown,220,2014-02-18 15:30:00
11:00 PM,78.8,75.2,89,29.83,5.0,SW,5.8,-,N/A,,Unknown,230,2014-02-18 16:00:00
11:30 PM,78.8,75.2,89,29.86,5.0,WSW,5.8,-,N/A,,Unknown,250,2014-02-18 16:30:00